sat.trackr.live / text

‹ back to catalog

STARLINK-11657 [DTC]

NORAD 63558 · 2025-075L

PAYLOAD ACTIVE UNKNOWN

§ Identity

Operator
Country
US
Launch date
2025-04-13
Launch site
AFETR
Launch vehicle
Mass (kg)
RCS (m²)

Purposes: comms

External: N2YO · Heavens-Above · Gunter

§ Orbital elements

Epoch: 2026-09-20T17:42:10.931328Z

Period
91.67 min
Inclination
42.9994°
Eccentricity
0.0001131
Mean motion
15.70891917 rev/d
Perigee alt
355.6 km
Apogee alt
357.1 km
Semi-major
6,734.5 km
B*
1.4161e-3
RAAN
58.1995°
Arg perigee
251.0725°
Mean anomaly
109.0021°
Rev number
8,392

§ Raw data

STARLINK-11657 [DTC]1 63558U 25075L   26263.73762652  .00185774  00000+0  14161-2 0  99992 63558  42.9994  58.1995 0001131 251.0725 109.0021 15.70891917 83924

JSON: /api/v1/satellites/63558 · /tle

For live sub-satellite position, see the globe view (requires WebGL).

§ Visibility from observer

Set your observer location to see the next 7 days of passes ≥ 10°. The values pass through the URL so the page stays shareable.

No JS? Fill the form by hand. The geolocation button needs JavaScript.